NSS-5

Last updated on Oct. 1, 2020, 5:42 a.m. UTC

1 24957U 97053A   20274.58344295  .00000095  00000-0  00000-0 0  9990
2 24957   6.1746  63.1709 0003434 118.6325  88.5174  1.00272797 84256
UTC
Height (km)
Latitude
Longitude
Inclination
Orbital Period
UTC large
Height (km)
Speed (km/s)
/
Latitude / Longitude
Inclination (degrees)
Orbital Period (minutes)
Azimuth
Elevation
Range (km)
Doppler Factor
iOS Compass Heading
iOS Angle

Next 30 passes for location: Hong Kong

Rise time Rise Azimuth (degrees) Set time Set Azimuth (degrees) Duration Max altitude (degrees)

No matching passes for this satellites